Voltar ao catálogo

NOAA 16 DEB

AtivoSSO
NORAD 41139·DEBRIS·🇺🇸 United States

Lançado Sep 21, 2000 de Vandenberg Space Force Base

Loading…

Próximas Passagens (próximas 24 horas)

TLE

AtualizadoSource: Space-Track

Época: Sep 14, 2026, 09:55 UTC

1 41139U 00055BW  26257.41327166  .00002948  00000-0  14216-2 0  9999
2 41139  98.9915 324.4778 0059823 128.0697 232.5895 14.18524838552095

Acompanhe NOAA 16 DEB em tempo real com AllMySat

Download on the App Store